Time,TemperatureF,DewpointF,PressureIn,WindDirection,WindDirectionDegrees,WindSpeedMPH,WindSpeedGustMPH,Humidity,HourlyPrecipIn,Conditions,Clouds,dailyrainin,SoftwareType,DateUTC
2013-04-08 00:00:00,57.2,40.2,29.84,ENE,72,0.0,0.0,53,0.00,RA,,0.00,WeatherDisplay:10.37,2013-04-08 05:00:00,
2013-04-08 00:05:00,57.2,40.2,29.83,ENE,72,0.0,0.0,53,0.00,RA,,0.00,WeatherDisplay:10.37,2013-04-08 05:05:00,
2013-04-08 00:15:00,57.6,41.1,29.83,ENE,72,0.0,3.0,54,0.00,CLR,,0.00,WeatherDisplay:10.37,2013-04-08 05:15:00,
2013-04-08 00:20:00,57.6,41.1,29.83,ENE,72,0.0,2.0,54,0.00,CLR,,0.00,WeatherDisplay:10.37,2013-04-08 05:20:00,
2013-04-08 00:25:00,57.6,41.5,29.83,ENE,72,0.0,0.0,55,0.00,CLR,,0.00,WeatherDisplay:10.37,2013-04-08 05:25:00,
2013-04-08 00:30:00,57.6,41.5,29.83,ENE,72,0.0,0.0,55,0.00,CLR,,0.00,WeatherDisplay:10.37,2013-04-08 05:30:00,
2013-04-08 00:35:00,57.6,42.0,29.83,ENE,72,0.0,2.0,56,0.00,CLR,,0.00,WeatherDisplay:10.37,2013-04-08 05:35:00,
2013-04-08 00:45:00,58.0,42.8,29.83,SE,146,0.0,2.0,57,0.00,CLR,,0.00,WeatherDisplay:10.37,2013-04-08 05:45:00,
2013-04-08 00:55:00,58.1,44.3,29.83,SE,146,2.0,5.0,60,0.00,SCT,,0.00,WeatherDisplay:10.37,2013-04-08 05:55:00,
2013-04-08 01:00:00,58.4,45.0,29.83,SE,146,2.0,5.0,61,0.00,SCT,,0.00,WeatherDisplay:10.37,2013-04-08 06:00:00,
2013-04-08 01:05:00,58.7,45.7,29.83,SE,145,5.0,6.0,62,0.00,SCT,,0.00,WeatherDisplay:10.37,2013-04-08 06:05:00,
2013-04-08 01:10:00,58.8,46.2,29.83,SE,144,2.0,5.0,63,0.00,SCT,,0.00,WeatherDisplay:10.37,2013-04-08 06:10:00,
2013-04-08 01:15:00,58.9,46.7,29.83,SE,144,2.0,3.0,64,0.00,SCT,,0.00,WeatherDisplay:10.37,2013-04-08 06:15:00,
2013-04-08 01:20:00,58.9,47.2,29.83,SSE,158,5.0,6.0,65,0.00,SCT,,0.00,WeatherDisplay:10.37,2013-04-08 06:20:00,
2013-04-08 01:25:00,59.0,47.7,29.82,SSE,166,2.0,6.0,66,0.00,SCT,,0.00,WeatherDisplay:10.37,2013-04-08 06:25:00,
2013-04-08 01:30:00,59.2,48.2,29.82,South,169,0.0,8.0,67,0.00,SCT,,0.00,WeatherDisplay:10.37,2013-04-08 06:30:00,
2013-04-08 01:40:00,59.3,49.5,29.82,SSE,163,5.0,8.0,70,0.00,SCT,,0.00,WeatherDisplay:10.37,2013-04-08 06:40:00,
2013-04-08 01:45:00,59.3,50.3,29.81,SSE,161,6.0,11.0,72,0.00,SCT,,0.00,WeatherDisplay:10.37,2013-04-08 06:45:00,
2013-04-08 01:50:00,59.5,50.8,29.81,SE,142,10.0,15.0,73,0.00,SCT,,0.00,WeatherDisplay:10.37,2013-04-08 06:50:00,
2013-04-08 01:55:00,59.6,51.7,29.81,SSE,155,5.0,23.0,75,0.00,BKN,,0.00,WeatherDisplay:10.37,2013-04-08 06:55:00,
2013-04-08 02:05:00,59.0,52.1,29.81,South,173,0.0,8.0,78,0.00,BKN,,0.00,WeatherDisplay:10.37,2013-04-08 07:05:00,
2013-04-08 02:15:00,58.4,52.3,29.80,South,173,2.0,11.0,80,0.00,-RA,,0.01,WeatherDisplay:10.37,2013-04-08 07:15:00,
2013-04-08 02:20:00,58.3,52.5,29.80,South,180,0.0,9.0,81,0.00,-RA,,0.01,WeatherDisplay:10.37,2013-04-08 07:20:00,
2013-04-08 02:25:00,58.1,52.6,29.79,South,171,5.0,11.0,82,0.00,-RA,,0.01,WeatherDisplay:10.37,2013-04-08 07:25:00,
2013-04-08 02:30:00,57.9,52.5,29.79,SSE,151,3.0,10.0,82,0.01,-RA,,0.02,WeatherDisplay:10.37,2013-04-08 07:30:00,
2013-04-08 02:35:00,57.6,52.5,29.79,SE,146,5.0,9.0,83,0.01,-RA,,0.02,WeatherDisplay:10.37,2013-04-08 07:35:00,
2013-04-08 02:45:00,57.5,52.7,29.78,SSE,157,5.0,5.0,84,0.00,-RA,,0.02,WeatherDisplay:10.37,2013-04-08 07:45:00,
2013-04-08 02:50:00,57.3,52.8,29.78,SSE,166,6.0,6.0,85,0.00,-RA,,0.02,WeatherDisplay:10.37,2013-04-08 07:50:00,
2013-04-08 02:55:00,57.2,52.7,29.78,SSE,167,0.0,8.0,85,0.00,-RA,,0.02,WeatherDisplay:10.37,2013-04-08 07:55:00,
2013-04-08 03:00:00,57.2,52.7,29.78,SSE,161,2.0,6.0,85,0.00,-RA,,0.02,WeatherDisplay:10.37,2013-04-08 08:00:00,
2013-04-08 03:05:00,57.0,52.9,29.78,SSE,156,2.0,5.0,86,0.00,-RA,,0.02,WeatherDisplay:10.37,2013-04-08 08:05:00,
2013-04-08 03:10:00,57.0,52.9,29.77,SSE,159,2.0,8.0,86,0.00,-RA,,0.02,WeatherDisplay:10.37,2013-04-08 08:10:00,
2013-04-08 03:15:00,57.0,52.9,29.77,SSE,157,1.0,8.0,86,0.00,OVC,,0.02,WeatherDisplay:10.37,2013-04-08 08:15:00,
2013-04-08 03:20:00,57.0,52.9,29.77,SSE,155,1.0,5.0,86,0.00,OVC,,0.02,WeatherDisplay:10.37,2013-04-08 08:20:00,
2013-04-08 03:25:00,57.0,53.2,29.77,SE,146,1.0,5.0,87,0.00,OVC,,0.02,WeatherDisplay:10.37,2013-04-08 08:25:00,
2013-04-08 03:30:00,57.2,53.4,29.76,SE,139,7.0,9.0,87,0.00,OVC,,0.02,WeatherDisplay:10.37,2013-04-08 08:30:00,
2013-04-08 03:40:00,57.3,53.1,29.76,SSE,162,2.0,9.0,86,0.00,BKN,,0.02,WeatherDisplay:10.37,2013-04-08 08:40:00,
2013-04-08 03:45:00,57.3,53.1,29.76,SSE,154,2.0,6.0,86,0.00,BKN,,0.02,WeatherDisplay:10.37,2013-04-08 08:45:00,
2013-04-08 03:50:00,57.3,53.1,29.76,SSE,152,6.0,11.0,86,0.00,BKN,,0.02,WeatherDisplay:10.37,2013-04-08 08:50:00,
2013-04-08 04:00:00,57.3,53.5,29.75,SSE,167,2.0,6.0,87,0.00,SCT,,0.02,WeatherDisplay:10.37,2013-04-08 09:00:00,
2013-04-08 04:05:00,57.2,53.4,29.75,SSE,147,3.0,11.0,87,0.00,SCT,,0.02,WeatherDisplay:10.37,2013-04-08 09:05:00,
2013-04-08 04:10:00,57.3,53.4,29.74,SE,144,9.0,18.0,87,0.00,SCT,,0.02,WeatherDisplay:10.37,2013-04-08 09:10:00,
2013-04-08 04:15:00,57.3,53.5,29.74,SSE,153,5.0,11.0,87,0.00,-RA,,0.02,WeatherDisplay:10.37,2013-04-08 09:15:00,
2013-04-08 04:20:00,57.3,53.1,29.74,SSE,151,6.0,10.0,86,0.00,-RA,,0.02,WeatherDisplay:10.37,2013-04-08 09:20:00,
2013-04-08 04:30:00,57.3,53.2,29.74,SSE,167,9.0,9.0,86,0.00,-RA,,0.02,WeatherDisplay:10.37,2013-04-08 09:30:00,
2013-04-08 04:40:00,57.6,53.1,29.74,SSE,160,2.0,8.0,85,0.00,SCT,,0.02,WeatherDisplay:10.37,2013-04-08 09:40:00,
2013-04-08 04:45:00,57.8,53.3,29.74,SSE,158,9.0,9.0,85,0.00,SCT,,0.02,WeatherDisplay:10.37,2013-04-08 09:45:00,
2013-04-08 04:55:00,58.0,53.2,29.74,SSE,158,5.0,8.0,84,0.00,CLR,,0.02,WeatherDisplay:10.37,2013-04-08 09:55:00,
2013-04-08 05:05:00,58.1,53.0,29.74,SSE,157,8.0,11.0,83,0.00,CLR,,0.02,WeatherDisplay:10.37,2013-04-08 10:05:00,
2013-04-08 05:10:00,58.3,53.2,29.74,SSE,158,5.0,14.0,83,0.00,CLR,,0.02,WeatherDisplay:10.37,2013-04-08 10:10:00,
2013-04-08 05:20:00,58.4,52.6,29.74,SSE,150,8.0,12.0,81,0.00,BKN,,0.02,WeatherDisplay:10.37,2013-04-08 10:20:00,
2013-04-08 05:25:00,58.6,52.8,29.74,SSE,147,6.0,14.0,81,0.00,BKN,,0.02,WeatherDisplay:10.37,2013-04-08 10:25:00,
2013-04-08 05:30:00,58.7,52.5,29.74,SSE,162,10.0,24.0,80,0.00,BKN,,0.02,WeatherDisplay:10.37,2013-04-08 10:30:00,
2013-04-08 05:35:00,58.8,52.6,29.73,SSE,165,10.0,18.0,80,0.00,OVC,,0.02,WeatherDisplay:10.37,2013-04-08 10:35:00,
2013-04-08 05:40:00,58.9,52.4,29.73,South,170,8.0,20.0,79,0.00,OVC,,0.02,WeatherDisplay:10.37,2013-04-08 10:40:00,
2013-04-08 05:45:00,58.9,52.4,29.73,SSE,168,10.0,15.0,79,0.00,OVC,,0.02,WeatherDisplay:10.37,2013-04-08 10:45:00,
2013-04-08 05:50:00,59.2,52.7,29.73,SSE,166,14.0,21.0,79,0.00,OVC,,0.02,WeatherDisplay:10.37,2013-04-08 10:50:00,
2013-04-08 05:55:00,59.2,52.3,29.73,SSE,160,10.0,18.0,78,0.00,OVC,,0.02,WeatherDisplay:10.37,2013-04-08 10:55:00,
2013-04-08 06:05:00,59.2,52.3,29.73,SSE,160,12.0,24.0,78,0.00,OVC,,0.02,WeatherDisplay:10.37,2013-04-08 11:05:00,
2013-04-08 06:10:00,59.0,52.1,29.73,SSE,163,7.0,12.0,78,0.00,OVC,,0.02,WeatherDisplay:10.37,2013-04-08 11:10:00,
2013-04-08 06:15:00,59.0,52.1,29.72,SSE,161,5.0,24.0,78,0.00,OVC,,0.02,WeatherDisplay:10.37,2013-04-08 11:15:00,
2013-04-08 06:25:00,59.2,52.0,29.72,SSE,157,10.0,29.0,77,0.00,OVC,,0.02,WeatherDisplay:10.37,2013-04-08 11:25:00,
2013-04-08 06:30:00,59.3,52.1,29.71,SSE,162,9.0,20.0,77,0.00,OVC,,0.02,WeatherDisplay:10.37,2013-04-08 11:30:00,
2013-04-08 06:35:00,59.3,52.1,29.71,SSE,162,14.0,20.0,77,0.00,OVC,,0.02,WeatherDisplay:10.37,2013-04-08 11:35:00,
2013-04-08 06:45:00,59.3,52.1,29.71,SSE,157,14.0,18.0,77,0.00,OVC,,0.02,WeatherDisplay:10.37,2013-04-08 11:45:00,
2013-04-08 06:50:00,59.3,52.1,29.70,SSE,155,8.0,20.0,77,0.00,OVC,,0.02,WeatherDisplay:10.37,2013-04-08 11:50:00,
2013-04-08 06:55:00,59.5,51.9,29.70,SSE,160,9.0,18.0,76,0.00,BKN,,0.02,WeatherDisplay:10.37,2013-04-08 11:55:00,
2013-04-08 07:00:00,59.6,51.7,29.70,SSE,163,14.0,20.0,75,0.00,BKN,,0.02,WeatherDisplay:10.37,2013-04-08 12:00:00,
2013-04-08 07:05:00,59.8,51.9,29.69,SSE,157,14.0,18.0,75,0.00,BKN,,0.02,WeatherDisplay:10.37,2013-04-08 12:05:00,
2013-04-08 07:10:00,59.8,51.9,29.69,SSE,151,18.0,20.0,75,0.00,BKN,,0.02,WeatherDisplay:10.37,2013-04-08 12:10:00,
2013-04-08 07:15:00,59.6,51.7,29.69,SSE,157,16.0,25.0,75,0.00,SCT,,0.02,WeatherDisplay:10.37,2013-04-08 12:15:00,
2013-04-08 07:30:00,59.6,51.7,29.69,SSE,168,20.0,20.0,75,0.00,SCT,,0.02,WeatherDisplay:10.37,2013-04-08 12:30:00,
2013-04-08 07:35:00,59.8,51.5,29.69,SSE,160,14.0,21.0,74,0.00,-RA,,0.02,WeatherDisplay:10.37,2013-04-08 12:35:00,
2013-04-08 07:40:00,59.8,51.5,29.69,SSE,161,12.0,20.0,74,0.00,-RA,,0.02,WeatherDisplay:10.37,2013-04-08 12:40:00,
2013-04-08 07:50:00,59.9,51.6,29.69,South,174,6.0,23.0,74,0.00,-RA,,0.02,WeatherDisplay:10.37,2013-04-08 12:50:00,
2013-04-08 07:55:00,59.9,51.6,29.69,South,180,14.0,18.0,74,0.00,-RA,,0.02,WeatherDisplay:10.37,2013-04-08 12:55:00,
2013-04-08 08:05:00,60.1,51.8,29.70,SSE,167,10.0,24.0,74,0.00,-RA,,0.02,WeatherDisplay:10.37,2013-04-08 13:05:00,
2013-04-08 08:10:00,60.2,51.5,29.70,South,169,8.0,24.0,73,0.00,-RA,,0.02,WeatherDisplay:10.37,2013-04-08 13:10:00,
2013-04-08 08:15:00,60.4,51.7,29.70,South,174,16.0,25.0,73,0.00,OVC,,0.02,WeatherDisplay:10.37,2013-04-08 13:15:00,
2013-04-08 08:20:00,60.5,51.8,29.70,South,177,13.0,17.0,73,0.00,OVC,,0.02,WeatherDisplay:10.37,2013-04-08 13:20:00,
2013-04-08 08:25:00,60.9,51.8,29.70,SSE,165,15.0,21.0,72,0.00,OVC,,0.02,WeatherDisplay:10.37,2013-04-08 13:25:00,
2013-04-08 08:35:00,61.4,52.3,29.70,South,178,15.0,21.0,72,0.00,BKN,,0.02,WeatherDisplay:10.37,2013-04-08 13:35:00,
2013-04-08 08:40:00,61.8,52.3,29.70,South,180,13.0,17.0,71,0.00,BKN,,0.02,WeatherDisplay:10.37,2013-04-08 13:40:00,
2013-04-08 08:45:00,62.1,52.6,29.70,South,173,10.0,20.0,71,0.00,BKN,,0.02,WeatherDisplay:10.37,2013-04-08 13:45:00,
2013-04-08 08:50:00,62.3,52.8,29.69,South,177,8.0,21.0,71,0.00,BKN,,0.02,WeatherDisplay:10.37,2013-04-08 13:50:00,
2013-04-08 09:00:00,62.9,53.0,29.69,South,182,14.0,23.0,70,0.00,CLR,,0.02,WeatherDisplay:10.37,2013-04-08 14:00:00,
2013-04-08 09:05:00,63.2,52.9,29.70,South,179,12.0,18.0,69,0.00,CLR,,0.02,WeatherDisplay:10.37,2013-04-08 14:05:00,
2013-04-08 09:15:00,63.5,53.1,29.70,South,177,6.0,23.0,69,0.00,CLR,,0.02,WeatherDisplay:10.37,2013-04-08 14:15:00,
2013-04-08 09:20:00,63.9,53.5,29.70,South,181,12.0,20.0,69,0.00,CLR,,0.02,WeatherDisplay:10.37,2013-04-08 14:20:00,
2013-04-08 09:30:00,63.9,53.5,29.69,South,182,9.0,17.0,69,0.00,CLR,,0.02,WeatherDisplay:10.37,2013-04-08 14:30:00,
2013-04-08 09:40:00,64.3,53.5,29.70,South,182,12.0,20.0,68,0.00,CLR,,0.02,WeatherDisplay:10.37,2013-04-08 14:40:00,
2013-04-08 09:50:00,64.7,53.5,29.70,South,186,9.0,15.0,67,0.00,CLR,,0.02,WeatherDisplay:10.37,2013-04-08 14:50:00,
2013-04-08 09:55:00,64.8,54.0,29.70,South,184,5.0,12.0,68,0.00,SCT,,0.02,WeatherDisplay:10.37,2013-04-08 14:55:00,
2013-04-08 10:00:00,65.1,53.9,29.70,South,175,13.0,18.0,67,0.00,SCT,,0.02,WeatherDisplay:10.37,2013-04-08 15:00:00,
2013-04-08 10:05:00,65.2,54.0,29.71,South,184,9.0,16.0,67,0.00,SCT,,0.02,WeatherDisplay:10.37,2013-04-08 15:05:00,
2013-04-08 10:10:00,65.2,54.0,29.71,South,186,9.0,18.0,67,0.00,SCT,,0.02,WeatherDisplay:10.37,2013-04-08 15:10:00,
2013-04-08 10:15:00,65.5,54.3,29.71,South,177,8.0,14.0,67,0.00,SCT,,0.02,WeatherDisplay:10.37,2013-04-08 15:15:00,
2013-04-08 10:30:00,66.6,54.1,29.72,South,187,15.0,24.0,64,0.00,SCT,,0.02,WeatherDisplay:10.37,2013-04-08 15:30:00,
2013-04-08 10:35:00,66.8,54.7,29.72,SSW,201,3.0,18.0,65,0.00,BKN,,0.02,WeatherDisplay:10.37,2013-04-08 15:35:00,
2013-04-08 10:40:00,66.9,54.3,29.72,SSW,212,9.0,17.0,64,0.00,BKN,,0.02,WeatherDisplay:10.37,2013-04-08 15:40:00,
2013-04-08 10:45:00,67.1,54.9,29.72,SSW,200,7.0,20.0,65,0.00,BKN,,0.02,WeatherDisplay:10.37,2013-04-08 15:45:00,
2013-04-08 10:50:00,67.1,54.5,29.72,SSW,206,9.0,17.0,64,0.00,BKN,,0.02,WeatherDisplay:10.37,2013-04-08 15:50:00,
2013-04-08 11:00:00,67.3,55.1,29.73,SW,216,7.0,17.0,65,0.00,BKN,,0.02,WeatherDisplay:10.37,2013-04-08 16:00:00,
2013-04-08 11:05:00,67.4,55.2,29.73,SSW,204,7.0,15.0,65,0.00,BKN,,0.02,WeatherDisplay:10.37,2013-04-08 16:05:00,
2013-04-08 11:10:00,67.6,55.4,29.73,South,180,7.0,20.0,65,0.00,BKN,,0.02,WeatherDisplay:10.37,2013-04-08 16:10:00,
2013-04-08 11:15:00,67.8,55.6,29.73,SSW,195,10.0,14.0,65,0.00,BKN,,0.02,WeatherDisplay:10.37,2013-04-08 16:15:00,
2013-04-08 11:25:00,67.8,55.6,29.73,SW,225,10.0,17.0,65,0.00,BKN,,0.02,WeatherDisplay:10.37,2013-04-08 16:25:00,
2013-04-08 11:30:00,67.9,55.7,29.73,SW,215,7.0,8.0,65,0.00,BKN,,0.02,WeatherDisplay:10.37,2013-04-08 16:30:00,
2013-04-08 11:35:00,68.4,56.2,29.74,SW,227,9.0,14.0,65,0.00,BKN,,0.02,WeatherDisplay:10.37,2013-04-08 16:35:00,
2013-04-08 11:40:00,69.1,56.4,29.74,WSW,253,7.0,11.0,64,0.00,BKN,,0.02,WeatherDisplay:10.37,2013-04-08 16:40:00,
2013-04-08 11:45:00,68.9,55.8,29.74,SW,222,9.0,20.0,63,0.00,BKN,,0.02,WeatherDisplay:10.37,2013-04-08 16:45:00,
2013-04-08 11:55:00,68.6,55.9,29.75,SW,230,16.0,21.0,64,0.00,SCT,,0.02,WeatherDisplay:10.37,2013-04-08 16:55:00,
2013-04-08 12:00:00,68.3,55.6,29.75,SW,230,8.0,12.0,64,0.00,SCT,,0.02,WeatherDisplay:10.37,2013-04-08 17:00:00,
2013-04-08 12:05:00,68.1,55.9,29.75,SW,227,8.0,17.0,65,0.00,SCT,,0.02,WeatherDisplay:10.37,2013-04-08 17:05:00,
2013-04-08 12:10:00,67.9,55.7,29.75,SW,229,12.0,15.0,65,0.00,SCT,,0.02,WeatherDisplay:10.37,2013-04-08 17:10:00,
2013-04-08 12:20:00,68.3,56.1,29.75,SW,230,3.0,14.0,65,0.00,SCT,,0.02,WeatherDisplay:10.37,2013-04-08 17:20:00,
2013-04-08 12:30:00,68.3,56.1,29.75,SW,225,6.0,15.0,65,0.00,SCT,,0.02,WeatherDisplay:10.37,2013-04-08 17:30:00,
2013-04-08 12:40:00,68.8,56.1,29.74,SW,230,3.0,20.0,64,0.00,SCT,,0.02,WeatherDisplay:10.37,2013-04-08 17:40:00,
2013-04-08 12:50:00,70.1,56.0,29.74,SW,229,8.0,20.0,61,0.00,SCT,,0.02,WeatherDisplay:10.37,2013-04-08 17:50:00,
2013-04-08 12:55:00,70.1,56.0,29.74,SW,224,10.0,17.0,61,0.00,SCT,,0.02,WeatherDisplay:10.37,2013-04-08 17:55:00,
2013-04-08 13:00:00,70.5,56.8,29.74,SW,222,1.0,20.0,62,0.00,SCT,,0.02,WeatherDisplay:10.37,2013-04-08 18:00:00,
2013-04-08 13:10:00,71.6,56.5,29.74,WSW,255,13.0,21.0,59,0.00,SCT,,0.02,WeatherDisplay:10.37,2013-04-08 18:10:00,
2013-04-08 13:15:00,71.6,56.0,29.74,WSW,250,13.0,24.0,58,0.00,SCT,,0.02,WeatherDisplay:10.37,2013-04-08 18:15:00,
2013-04-08 13:20:00,71.8,56.2,29.74,SW,236,3.0,11.0,58,0.00,SCT,,0.02,WeatherDisplay:10.37,2013-04-08 18:20:00,
2013-04-08 13:25:00,71.8,55.7,29.74,WSW,243,10.0,14.0,57,0.00,SCT,,0.02,WeatherDisplay:10.37,2013-04-08 18:25:00,
2013-04-08 13:30:00,71.8,56.2,29.73,WSW,257,3.0,14.0,58,0.00,SCT,,0.02,WeatherDisplay:10.37,2013-04-08 18:30:00,
2013-04-08 13:35:00,71.4,56.3,29.73,West,277,10.0,24.0,59,0.00,SCT,,0.02,WeatherDisplay:10.37,2013-04-08 18:35:00,
2013-04-08 13:40:00,71.1,56.0,29.74,WSW,256,16.0,21.0,59,0.00,SCT,,0.02,WeatherDisplay:10.37,2013-04-08 18:40:00,
2013-04-08 13:50:00,72.0,56.9,29.73,WSW,253,8.0,23.0,59,0.00,SCT,,0.02,WeatherDisplay:10.37,2013-04-08 18:50:00,
2013-04-08 13:55:00,72.1,56.5,29.73,West,260,6.0,23.0,58,0.00,SCT,,0.02,WeatherDisplay:10.37,2013-04-08 18:55:00,
2013-04-08 14:00:00,72.3,55.7,29.73,West,261,10.0,20.0,56,0.00,SCT,,0.02,WeatherDisplay:10.37,2013-04-08 19:00:00,
2013-04-08 14:05:00,72.6,56.0,29.74,WSW,247,9.0,24.0,56,0.00,SCT,,0.02,WeatherDisplay:10.37,2013-04-08 19:05:00,
2013-04-08 14:10:00,73.2,56.6,29.73,WSW,248,7.0,18.0,56,0.00,SCT,,0.02,WeatherDisplay:10.37,2013-04-08 19:10:00,
2013-04-08 14:15:00,73.7,56.0,29.73,SW,230,8.0,18.0,54,0.00,SCT,,0.02,WeatherDisplay:10.37,2013-04-08 19:15:00,
2013-04-08 14:20:00,73.6,55.4,29.73,WSW,245,12.0,15.0,53,0.00,SCT,,0.02,WeatherDisplay:10.37,2013-04-08 19:20:00,
2013-04-08 14:25:00,73.3,55.6,29.73,West,261,5.0,8.0,54,0.00,SCT,,0.02,WeatherDisplay:10.37,2013-04-08 19:25:00,
2013-04-08 14:30:00,73.2,56.1,29.73,West,275,3.0,21.0,55,0.00,SCT,,0.02,WeatherDisplay:10.37,2013-04-08 19:30:00,
2013-04-08 14:35:00,73.9,56.2,29.73,West,261,7.0,11.0,54,0.00,SCT,,0.02,WeatherDisplay:10.37,2013-04-08 19:35:00,
2013-04-08 14:40:00,74.6,56.4,29.73,WSW,251,3.0,11.0,53,0.00,SCT,,0.02,WeatherDisplay:10.37,2013-04-08 19:40:00,
2013-04-08 14:50:00,74.5,55.7,29.73,West,267,8.0,15.0,52,0.00,SCT,,0.02,WeatherDisplay:10.37,2013-04-08 19:50:00,
2013-04-08 14:55:00,74.6,55.9,29.73,WSW,255,7.0,18.0,52,0.00,SCT,,0.02,WeatherDisplay:10.37,2013-04-08 19:55:00,
2013-04-08 15:00:00,74.6,56.3,29.73,West,265,13.0,20.0,53,0.00,SCT,,0.02,WeatherDisplay:10.37,2013-04-08 20:00:00,
2013-04-08 15:05:00,74.2,56.0,29.74,West,280,17.0,18.0,53,0.00,SCT,,0.02,WeatherDisplay:10.37,2013-04-08 20:05:00,
2013-04-08 15:15:00,73.8,55.6,29.73,WSW,256,8.0,11.0,53,0.00,SCT,,0.02,WeatherDisplay:10.37,2013-04-08 20:15:00,
2013-04-08 15:20:00,74.1,55.9,29.73,WSW,238,12.0,17.0,53,0.00,SCT,,0.02,WeatherDisplay:10.37,2013-04-08 20:20:00,
2013-04-08 15:25:00,74.4,55.6,29.73,SW,234,12.0,18.0,52,0.00,SCT,,0.02,WeatherDisplay:10.37,2013-04-08 20:25:00,
2013-04-08 15:35:00,74.9,56.1,29.73,WSW,258,6.0,9.0,52,0.00,SCT,,0.02,WeatherDisplay:10.37,2013-04-08 20:35:00,
2013-04-08 15:40:00,74.9,55.6,29.73,West,264,3.0,8.0,51,0.00,SCT,,0.02,WeatherDisplay:10.37,2013-04-08 20:40:00,
2013-04-08 15:50:00,74.4,55.7,29.73,WSW,248,6.0,10.0,52,0.00,SCT,,0.02,WeatherDisplay:10.37,2013-04-08 20:50:00,
2013-04-08 16:00:00,74.6,56.3,29.73,WSW,254,5.0,9.0,53,0.00,SCT,,0.02,WeatherDisplay:10.37,2013-04-08 21:00:00,
2013-04-08 16:05:00,74.4,56.2,29.73,West,263,2.0,9.0,53,0.00,SCT,,0.02,WeatherDisplay:10.37,2013-04-08 21:05:00,
2013-04-08 16:10:00,74.2,56.0,29.73,West,273,6.0,9.0,53,0.00,SCT,,0.02,WeatherDisplay:10.37,2013-04-08 21:10:00,
2013-04-08 16:15:00,74.1,55.9,29.73,West,262,7.0,11.0,53,0.00,SCT,,0.02,WeatherDisplay:10.37,2013-04-08 21:15:00,
2013-04-08 16:20:00,74.4,55.6,29.73,WSW,248,9.0,14.0,52,0.00,SCT,,0.02,WeatherDisplay:10.37,2013-04-08 21:20:00,
2013-04-08 16:25:00,74.2,56.0,29.73,WSW,255,8.0,14.0,53,0.00,SCT,,0.02,WeatherDisplay:10.37,2013-04-08 21:25:00,
2013-04-08 16:30:00,74.3,56.1,29.73,West,266,2.0,6.0,53,0.00,SCT,,0.02,WeatherDisplay:10.37,2013-04-08 21:30:00,
2013-04-08 16:35:00,74.6,55.8,29.73,WSW,252,10.0,15.0,52,0.00,SCT,,0.02,WeatherDisplay:10.37,2013-04-08 21:35:00,
2013-04-08 16:40:00,74.4,55.6,29.74,SW,233,6.0,9.0,52,0.00,SCT,,0.02,WeatherDisplay:10.37,2013-04-08 21:40:00,
2013-04-08 16:50:00,74.0,56.3,29.74,SW,227,2.0,8.0,54,0.00,SCT,,0.02,WeatherDisplay:10.37,2013-04-08 21:50:00,
2013-04-08 16:55:00,73.9,56.7,29.74,SW,235,8.0,15.0,55,0.00,SCT,,0.02,WeatherDisplay:10.37,2013-04-08 21:55:00,
2013-04-08 17:00:00,73.7,57.0,29.75,SW,236,7.0,11.0,56,0.00,SCT,,0.02,WeatherDisplay:10.37,2013-04-08 22:00:00,
2013-04-08 17:05:00,73.3,56.7,29.75,SW,236,1.0,6.0,56,0.00,SCT,,0.02,WeatherDisplay:10.37,2013-04-08 22:05:00,
2013-04-08 17:10:00,73.2,57.1,29.75,SW,218,2.0,6.0,57,0.00,SCT,,0.02,WeatherDisplay:10.37,2013-04-08 22:10:00,
2013-04-08 17:20:00,74.2,57.5,29.75,WSW,245,7.0,8.0,56,0.00,SCT,,0.02,WeatherDisplay:10.37,2013-04-08 22:20:00,
2013-04-08 17:25:00,74.4,57.2,29.75,SW,228,5.0,9.0,55,0.00,SCT,,0.02,WeatherDisplay:10.37,2013-04-08 22:25:00,
2013-04-08 17:35:00,73.6,56.9,29.76,South,175,7.0,9.0,56,0.00,BKN,,0.02,WeatherDisplay:10.37,2013-04-08 22:35:00,
2013-04-08 17:45:00,72.8,57.6,29.76,South,176,3.0,9.0,59,0.00,BKN,,0.02,WeatherDisplay:10.37,2013-04-08 22:45:00,
2013-04-08 17:50:00,72.7,57.5,29.76,South,172,5.0,9.0,59,0.00,BKN,,0.02,WeatherDisplay:10.37,2013-04-08 22:50:00,
2013-04-08 18:00:00,72.1,57.4,29.77,South,182,7.0,17.0,60,0.00,BKN,,0.02,WeatherDisplay:10.37,2013-04-08 23:00:00,
2013-04-08 18:05:00,72.0,57.8,29.77,South,191,9.0,14.0,61,0.00,BKN,,0.02,WeatherDisplay:10.37,2013-04-08 23:05:00,
2013-04-08 18:10:00,71.8,57.6,29.77,South,191,7.0,18.0,61,0.00,BKN,,0.02,WeatherDisplay:10.37,2013-04-08 23:10:00,
2013-04-08 18:15:00,71.5,57.8,29.77,South,185,3.0,8.0,62,0.00,BKN,,0.02,WeatherDisplay:10.37,2013-04-08 23:15:00,
2013-04-08 18:20:00,71.3,58.1,29.77,South,185,5.0,8.0,63,0.00,BKN,,0.02,WeatherDisplay:10.37,2013-04-08 23:20:00,
2013-04-08 18:25:00,71.1,57.9,29.77,South,179,5.0,8.0,63,0.00,BKN,,0.02,WeatherDisplay:10.37,2013-04-08 23:25:00,
2013-04-08 18:30:00,71.1,57.9,29.77,South,176,5.0,11.0,63,0.00,BKN,,0.02,WeatherDisplay:10.37,2013-04-08 23:30:00,
2013-04-08 18:35:00,71.0,57.7,29.78,South,169,6.0,11.0,63,0.00,BKN,,0.02,WeatherDisplay:10.37,2013-04-08 23:35:00,
2013-04-08 18:40:00,70.8,57.6,29.78,South,181,9.0,21.0,63,0.00,BKN,,0.02,WeatherDisplay:10.37,2013-04-08 23:40:00,
2013-04-08 18:50:00,70.4,57.2,29.78,South,185,0.0,17.0,63,0.00,BKN,,0.02,WeatherDisplay:10.37,2013-04-08 23:50:00,
2013-04-08 18:55:00,70.3,57.5,29.79,South,187,2.0,8.0,64,0.00,SCT,,0.02,WeatherDisplay:10.37,2013-04-08 23:55:00,
2013-04-08 19:00:00,70.1,57.4,29.79,South,190,1.0,6.0,64,0.00,SCT,,0.02,WeatherDisplay:10.37,2013-04-09 00:00:00,
2013-04-08 19:05:00,69.9,57.2,29.79,South,186,3.0,8.0,64,0.00,SCT,,0.02,WeatherDisplay:10.37,2013-04-09 00:05:00,
2013-04-08 19:10:00,69.9,57.2,29.79,South,183,2.0,8.0,64,0.00,SCT,,0.02,WeatherDisplay:10.37,2013-04-09 00:10:00,
2013-04-08 19:15:00,69.8,57.1,29.79,SSW,192,3.0,11.0,64,0.00,CLR,,0.02,WeatherDisplay:10.37,2013-04-09 00:15:00,
2013-04-08 19:25:00,69.4,57.1,29.79,South,184,2.0,5.0,65,0.00,CLR,,0.02,WeatherDisplay:10.37,2013-04-09 00:25:00,
2013-04-08 19:30:00,69.3,57.0,29.79,South,179,1.0,5.0,65,0.00,CLR,,0.02,WeatherDisplay:10.37,2013-04-09 00:30:00,
2013-04-08 19:35:00,69.1,56.8,29.79,South,174,3.0,6.0,65,0.00,CLR,,0.02,WeatherDisplay:10.37,2013-04-09 00:35:00,
2013-04-08 19:40:00,68.9,57.1,29.79,South,174,2.0,8.0,66,0.00,CLR,,0.02,WeatherDisplay:10.37,2013-04-09 00:40:00,
2013-04-08 19:45:00,68.8,57.0,29.80,South,173,0.0,3.0,66,0.00,CLR,,0.02,WeatherDisplay:10.37,2013-04-09 00:45:00,
2013-04-08 19:50:00,68.4,56.6,29.80,SSE,168,0.0,3.0,66,0.00,CLR,,0.02,WeatherDisplay:10.37,2013-04-09 00:50:00,
2013-04-08 19:55:00,68.3,56.9,29.80,SSW,193,3.0,6.0,67,0.00,CLR,,0.02,WeatherDisplay:10.37,2013-04-09 00:55:00,
2013-04-08 20:00:00,68.2,56.8,29.80,SSW,198,0.0,5.0,67,0.00,CLR,,0.02,WeatherDisplay:10.37,2013-04-09 01:00:00,
2013-04-08 20:15:00,67.8,56.9,29.81,SSW,195,3.0,5.0,68,0.00,CLR,,0.02,WeatherDisplay:10.37,2013-04-09 01:15:00,
2013-04-08 20:20:00,67.6,56.7,29.81,South,176,2.0,5.0,68,0.00,CLR,,0.02,WeatherDisplay:10.37,2013-04-09 01:20:00,
2013-04-08 20:25:00,67.4,56.5,29.81,SSE,167,3.0,8.0,68,0.00,CLR,,0.02,WeatherDisplay:10.37,2013-04-09 01:25:00,
2013-04-08 20:30:00,67.3,56.8,29.81,South,177,0.0,11.0,69,0.00,CLR,,0.02,WeatherDisplay:10.37,2013-04-09 01:30:00,
2013-04-08 20:40:00,67.1,56.6,29.81,South,171,8.0,9.0,69,0.00,CLR,,0.02,WeatherDisplay:10.37,2013-04-09 01:40:00,
2013-04-08 20:45:00,66.9,56.4,29.82,South,171,3.0,8.0,69,0.00,CLR,,0.02,WeatherDisplay:10.37,2013-04-09 01:45:00,
2013-04-08 20:50:00,66.9,56.3,29.82,South,173,0.0,3.0,69,0.00,CLR,,0.02,WeatherDisplay:10.37,2013-04-09 01:50:00,
2013-04-08 21:00:00,66.4,56.3,29.83,South,185,2.0,3.0,70,0.00,CLR,,0.02,WeatherDisplay:10.37,2013-04-09 02:00:00,
2013-04-08 21:05:00,66.4,56.3,29.82,SSE,167,3.0,8.0,70,0.00,CLR,,0.02,WeatherDisplay:10.37,2013-04-09 02:05:00,
2013-04-08 21:10:00,66.3,56.2,29.82,SSE,166,2.0,5.0,70,0.00,CLR,,0.02,WeatherDisplay:10.37,2013-04-09 02:10:00,
2013-04-08 21:15:00,66.1,56.4,29.82,South,179,3.0,6.0,71,0.00,CLR,,0.02,WeatherDisplay:10.37,2013-04-09 02:15:00,
2013-04-08 21:20:00,66.0,56.3,29.82,South,181,3.0,8.0,71,0.00,CLR,,0.02,WeatherDisplay:10.37,2013-04-09 02:20:00,
2013-04-08 21:25:00,65.8,56.1,29.82,South,177,3.0,6.0,71,0.00,CLR,,0.02,WeatherDisplay:10.37,2013-04-09 02:25:00,
2013-04-08 21:30:00,65.6,55.9,29.83,SSE,162,0.0,6.0,71,0.00,CLR,,0.02,WeatherDisplay:10.37,2013-04-09 02:30:00,
2013-04-08 21:35:00,65.6,55.9,29.83,SSE,154,1.0,5.0,71,0.00,CLR,,0.02,WeatherDisplay:10.37,2013-04-09 02:35:00,
2013-04-08 21:40:00,65.5,55.8,29.84,SSW,204,0.0,0.0,71,0.00,CLR,,0.02,WeatherDisplay:10.37,2013-04-09 02:40:00,
2013-04-08 21:50:00,65.2,55.9,29.84,South,183,1.0,5.0,72,0.00,CLR,,0.02,WeatherDisplay:10.37,2013-04-09 02:50:00,
2013-04-08 21:55:00,65.2,55.9,29.84,South,170,1.0,6.0,72,0.00,CLR,,0.02,WeatherDisplay:10.37,2013-04-09 02:55:00,
2013-04-08 22:05:00,65.3,56.0,29.84,SSE,167,1.0,5.0,72,0.00,CLR,,0.02,WeatherDisplay:10.37,2013-04-09 03:05:00,
2013-04-08 22:10:00,65.2,55.9,29.84,South,173,0.0,3.0,72,0.00,CLR,,0.02,WeatherDisplay:10.37,2013-04-09 03:10:00,
2013-04-08 22:15:00,65.2,55.9,29.84,South,174,1.0,6.0,72,0.00,CLR,,0.02,WeatherDisplay:10.37,2013-04-09 03:15:00,
2013-04-08 22:20:00,65.2,55.9,29.84,South,173,1.0,5.0,72,0.00,CLR,,0.02,WeatherDisplay:10.37,2013-04-09 03:20:00,
2013-04-08 22:30:00,64.8,55.9,29.84,SSE,163,3.0,6.0,73,0.00,CLR,,0.02,WeatherDisplay:10.37,2013-04-09 03:30:00,
2013-04-08 22:40:00,64.8,55.6,29.85,SSE,166,2.0,6.0,72,0.00,CLR,,0.02,WeatherDisplay:10.37,2013-04-09 03:40:00,
2013-04-08 22:45:00,65.0,55.8,29.85,SSE,156,5.0,11.0,72,0.00,CLR,,0.02,WeatherDisplay:10.37,2013-04-09 03:45:00,
2013-04-08 22:55:00,64.9,55.7,29.85,South,173,0.0,6.0,72,0.00,CLR,,0.02,WeatherDisplay:10.37,2013-04-09 03:55:00,
2013-04-08 23:00:00,64.8,55.6,29.85,SSE,163,1.0,6.0,72,0.00,CLR,,0.02,WeatherDisplay:10.37,2013-04-09 04:00:00,
2013-04-08 23:05:00,64.8,55.6,29.85,SSE,165,2.0,5.0,72,0.00,CLR,,0.02,WeatherDisplay:10.37,2013-04-09 04:05:00,
2013-04-08 23:10:00,64.7,55.5,29.85,South,172,2.0,6.0,72,0.00,CLR,,0.02,WeatherDisplay:10.37,2013-04-09 04:10:00,
2013-04-08 23:15:00,64.5,55.7,29.85,SSE,167,6.0,8.0,73,0.00,CLR,,0.02,WeatherDisplay:10.37,2013-04-09 04:15:00,
2013-04-08 23:20:00,64.5,55.7,29.86,SSE,167,1.0,8.0,73,0.00,CLR,,0.02,WeatherDisplay:10.37,2013-04-09 04:20:00,
2013-04-08 23:25:00,64.3,55.5,29.86,SSE,165,0.0,6.0,73,0.00,CLR,,0.02,WeatherDisplay:10.37,2013-04-09 04:25:00,
2013-04-08 23:30:00,64.3,55.5,29.86,SSE,158,1.0,6.0,73,0.00,CLR,,0.02,WeatherDisplay:10.37,2013-04-09 04:30:00,
2013-04-08 23:35:00,64.2,55.4,29.86,SSE,156,3.0,8.0,73,0.00,CLR,,0.02,WeatherDisplay:10.37,2013-04-09 04:35:00,
2013-04-08 23:40:00,64.2,55.4,29.86,SSE,161,6.0,6.0,73,0.00,CLR,,0.02,WeatherDisplay:10.37,2013-04-09 04:40:00,
2013-04-08 23:45:00,64.2,55.4,29.86,SSE,167,0.0,5.0,73,0.00,SCT,,0.02,WeatherDisplay:10.37,2013-04-09 04:45:00,
2013-04-08 23:55:00,63.9,55.4,29.87,South,181,1.0,6.0,74,0.00,SCT,,0.02,WeatherDisplay:10.37,2013-04-09 04:55:00,